Location: Centerville
(32.8776°N, 96.6203°W)
Time: 23:31:03
(UTC+00:00)

Resurs 1-4 Rocket - Pass Details

Date: 17 June 2021
Orbit: 800 x 813 km, 98.6° (Epoch: 01 August)

Event Time Altitude Azimuth Distance (km) Brightness Sun altitude
Rises 09:16:19 0° 350° (N) 3,336 5.9 -20.8°
Reaches altitude 10° 09:19:39 10° 328° (NNW) 2,403 4.8 -20.4°
Maximum altitude 09:22:31 15° 295° (WNW) 2,074 4.1 -19.9°
Enters shadow 09:23:31 14° 283° (WNW) 2,115 4.0 -19.8°
